Location: ?????
(55.8833°N, 37.6500°E)
Time: 16:31:26
(UTC+00:00)

Cosmos 389 Rocket - Pass Details

Date: 27 February 2020
Orbit: 443 x 477 km, 81.1° (Epoch: 30 March)

Event Time Altitude Azimuth Distance (km) Brightness Sun altitude
Rises 17:40:17 0° 342° (NNW) 2,550 6.8 -23.2°
Reaches altitude 10° 17:42:25 10° 339° (NNW) 1,666 5.8 -23.5°
Enters shadow 17:45:51 56° 272° (W) 580 3.1 -23.9°
